Regional Weather Roundup
Issued by NWS

Home | Current Version | Previous Version | Graphics & Text | Print | Product List | Glossary On
Versions: 1 2 3 4 5 6 7 8 9 10 11 12 13 14 15 16 17 18 19 20 21 22 23 24 25 26 27 28 29 30 31 32 33 34 35 36 37 38 39 40 41 42 43 44 45 46 47 48 49 50
000
ASUS43 KOAX 020602
RWRNE

WEATHER ROUNDUP FOR NEBRASKA
NATIONAL WEATHER SERVICE OMAHA NE
100 AM CDT THU JUL 02 2015

NOTES: SATELLITE DATA IS BEING USED TO AUGMENT CLOUD COVER ABOVE
       12000 FEET.
       "FAIR" INDICATES FEW OR NO CLOUDS BELOW 12,000 FEET WITH NO
       SIGNIFICANT WEATHER AND/OR OBSTRUCTIONS TO VISIBILITY.

  * THESE STATIONS DO NOT REPORT WEATHER SUCH AS RAIN...SNOW OR FOG.

NEZ001>004-019>022-054>056-020700-
NEBRASKA PANHANDLE

CITY           SKY/WX    TMP DP  RH WIND       PRES   REMARKS
SCOTTSBLUFF    MOCLDY    67  59  75 SE8       30.01F
6HR MIN TEMP:  67; 6HR MAX TEMP:  89; 6HR PCP:  0.10;

ALLIANCE       CLOUDY    70  60  70 E8        30.02F
6HR MIN TEMP:  67; 6HR MAX TEMP:  86;

CHADRON        CLOUDY    70  63  78 NE24G33   30.03R
6HR MIN TEMP:  67; 6HR MAX TEMP:  84;

SIDNEY         CLOUDY    64  60  87 S8        30.08F
6HR MIN TEMP:  64; 6HR MAX TEMP:  89; 6HR PCP:  0.02;

$$

NEZ057>060-069>072-079>082-020700-
SOUTHWEST NEBRASKA

CITY           SKY/WX    TMP DP  RH WIND       PRES   REMARKS
NORTH PLATTE   CLOUDY    72  61  68 E6        29.96F
6HR MIN TEMP:  70; 6HR MAX TEMP:  90;

IMPERIAL       MOCLDY    76  59  55 NW15      30.03S
6HR MIN TEMP:  71; 6HR MAX TEMP:  93;

MCCOOK         MOCLDY    74  65  73 SW8       29.96S
6HR MIN TEMP:  74; 6HR MAX TEMP:  93;

$$

NEZ005>010-023>029-035>040-094-020700-
NORTH CENTRAL NEBRASKA

CITY           SKY/WX    TMP DP  RH WIND       PRES   REMARKS
VALENTINE      PTCLDY    66  64  93 E5        29.95F
6HR MIN TEMP:  64; 6HR MAX TEMP:  83;

BROKEN BOW     PTCLDY    66  63  90 N3        29.95F
6HR MIN TEMP:  66; 6HR MAX TEMP:  86;

$$

NEZ041-046>049-061>064-073>077-083>087-020700-
SOUTH CENTRAL NEBRASKA

CITY           SKY/WX    TMP DP  RH WIND       PRES   REMARKS
GRAND ISLAND   PTCLDY    70  66  87 E6        29.93F
6HR MIN TEMP:  70; 6HR MAX TEMP:  84; 6HR PCP: TRACE;

HASTINGS       PTCLDY    72  69  90 E7        29.92F
6HR MIN TEMP:  72; 6HR MAX TEMP:  85;

KEARNEY *      PTCLDY    70  64  83 NE5       29.94S
$$

NEZ011>018-030>034-042>045-020700-
NORTHEAST NEBRASKA

CITY           SKY/WX    TMP DP  RH WIND       PRES   REMARKS
NORFOLK        CLOUDY    68  65  90 E7        29.95S
6HR MIN TEMP:  67; 6HR MAX TEMP:  79;

COLUMBUS *     CLEAR     66  61  82 E7        29.93S
TEKAMAH        CLEAR     68  60  75 E6        29.94R
6HR MIN TEMP:  68; 6HR MAX TEMP:  79;

$$

NEZ050>053-065>068-078-088>093-020700-
SOUTHEAST NEBRASKA

CITY           SKY/WX    TMP DP  RH WIND       PRES   REMARKS
LINCOLN        PTCLDY    71  66  84 E10       29.92R
6HR MIN TEMP:  71; 6HR MAX TEMP:  83;

OMAHA EPPLEY   CLOUDY    70  62  76 VRB7      29.93R
6HR MIN TEMP:  70; 6HR MAX TEMP:  80;

FALLS CITY     CLOUDY    72  68  87 E9        29.88R
6HR MIN TEMP:  72; 6HR MAX TEMP:  82;

$$

NEZ044-045-051>053-067-020700-
OMAHA AREA

CITY           SKY/WX    TMP DP  RH WIND       PRES   REMARKS
OMAHA EPPLEY   CLOUDY    70  62  76 VRB7      29.93R
6HR MIN TEMP:  70; 6HR MAX TEMP:  80;

OFFUTT AFB     MOCLDY    69  64  85 NE9       29.92R
$$


USA.gov is the U.S. government's official web portal to all federal, state and local government web resources and services.